Regional Weather Roundup
Issued by NWS

Home | Current Version | Previous Version | Graphics & Text | Print | Product List | Glossary On
Versions: 1 2 3 4 5 6 7 8 9 10 11 12 13 14 15 16 17 18 19 20 21 22 23 24 25 26 27
000
ASUS45 KBOU 221207
RWRCO

WEATHER ROUNDUP FOR COLORADO
NATIONAL WEATHER SERVICE DENVER/BOULDER CO
600 AM MDT MON MAY 22 2017

NOTE: "FAIR" INDICATES FEW OR NO CLOUDS BELOW 12000 FEET WITH NO
SIGNIFICANT WEATHER AND/OR OBSTRUCTIONS TO VISIBILITY.

COZ001>005-013-030-031-221300-
...NORTHWEST COLORADO...

CITY           SKY/WX    TMP DP  RH WIND       PRES   REMARKS
CRAIG          FOG       32  30  92 CALM      30.28F VSB 1/4
HAYDEN         FAIR      32  28  86 E6        30.28S WCI  26
MEEKER         FAIR      36  34  92 CALM      30.29R
RABBIT EARS PA FAIR      28  27  93 NW5       30.34S WCI  23
STEAMBOAT SPGS FAIR      32  32  99 CALM      30.29R
WALDEN           N/A     34  32  93 CALM      30.31S
$$

COZ006>008-011-221300-
...WEST CENTRAL VALLEYS...

CITY           SKY/WX    TMP DP  RH WIND       PRES   REMARKS
GRAND JUNCTION FAIR      45  40  82 E3        30.21S
MONTROSE       FAIR      41  39  93 S3        30.25S
EAGLE          CLOUDY    41  39  93 CALM      30.30R
RIFLE          MOCLDY    41  38  89 E3        30.25R
DELTA          FAIR      45  39  80 N5        30.23S
NUCLA          FAIR      37  36  93 SE6       30.27R
$$

COZ017>023-064>068-221300-
...SOUTHWEST COLORADO...

CITY           SKY/WX    TMP DP  RH WIND       PRES   REMARKS
DURANGO        FAIR      33  27  78 S3        30.17S
CORTEZ         FAIR      35  33  92 NE7       30.20S WCI  29
PAGOSA SPRINGS FAIR      33  27  79 CALM      30.21S
TELLURIDE      FAIR      35  35 100 CALM      30.31S
WOLF CREEK PAS FAIR      27  23  86 NW5       30.40S WCI  21
$$

COZ009-010-012-014-032>034-037-058>063-221300-
...CENTRAL COLORADO...

CITY           SKY/WX    TMP DP  RH WIND       PRES   REMARKS
ASPEN          CLOUDY    39  37  92 CALM      30.27S
BUENA VISTA    CLOUDY    38  36  91 CALM      30.26S
COPPER MTN     SNOW      30  27  86 MISG      30.36S VSB<1/4
BERTHOUD PASS  HAZE      21  10  63 N10G25    30.34F VSB<1/4 WCI  10
COTTONWOOD PAS CLOUDY    36  34  93 CALM      30.30R
GUNNISON       MOCLDY    38  35  89 N3        30.27R
KREMMLING      FAIR      37  36  93 SE3       30.30F
LEADVILLE      CLOUDY    33  26  75 N10       30.29R WCI  25
MONARCH PASS   CLOUDY    28  27  93 W16G23    30.43S WCI  17
SALIDA         CLOUDY    42  40  92 CALM      30.33R
SUNLIGHT       CLOUDY    30  30 100 CALM      30.39S FOG
WILKERSON PASS FOG       28  27  93 NE10G21   30.35R VSB 1/2 WCI  19
$$

COZ069>075-221300-
...SAN LUIS VALLEY/SANGRE DE CRISTO MOUNTAINS...

CITY           SKY/WX    TMP DP  RH WIND       PRES   REMARKS
ALAMOSA        FAIR      36  31  82 CALM      30.22R
DEL NORTE      CLOUDY    36  29  74 W8        30.24S
LA VETA PASS   SNOW      34  34 100 N8        30.40R VSB<1/4 WCI  27
SAGUACHE       CLOUDY    41  32  70 N9        30.24S
$$

COZ035-036-038>040-221300-
...NORTHERN COLORADO FRONT RANGE...

CITY           SKY/WX    TMP DP  RH WIND       PRES   REMARKS
DENVER INTL AP FAIR      43  41  93 SW9       30.19F
DMNS CITY PARK   N/A     45  44  95 NE3       30.20R
AURORA         PTCLDY    43  42  99 SW6       30.21S
FRONT RANGE AP FAIR      43  41  93 SW7       30.20S
ERIE MUNI ARPT FAIR      40  40  99 CALM      30.19F
BOULDER MUN AP FAIR      45  41  87 SW3       30.18F
CENTENNIAL     MOCLDY    43  41  93 CALM      30.21S
BROOMFIELD     FAIR      43  37  81 CALM      30.20F
FORT COLLINS   FAIR      41  39  93 S3        30.19F
LONGMONT       FAIR      40  37  91 W3        30.21S FOG
$$

COZ041-046-047-076>085-087-088-221300-
...PIKES PEAK/PALMER DIVIDE AND SOUTHERN FOOTHILLS...

CITY           SKY/WX    TMP DP  RH WIND       PRES   REMARKS
COLO. SPRINGS  LGT RAIN  45  42  89 W10       30.23S FOG
A. F. ACADEMY  LGT RAIN  42  40  95 NW3       30.22F
SCHRIEVER AFB  LGT RAIN  43  38  83 NW8G17    30.22R
CHEYENNE MTN   LGT RAIN  42  36  79 NW16G30   30.17F
ELLICOTT       LGT RAIN N/A N/A N/A NW12      30.21R
FALCON         RAIN      42  38  87 N7        30.24S
FORT CARSON    CLOUDY    43  41  93 N7        30.21F
LIMON          MOCLDY    43  43 100 NW3       30.18F
MONUMENT HILL  CLOUDY    37  36  93 W7        30.25S
CANON CITY     NOT AVBL
WALSENBURG     CLOUDY    46  45  93 N13       30.23R
TRINIDAD       LGT RAIN  46  43  89 N8        30.20R
$$

COZ042>045-048>051-090-091-221300-
...NORTHEAST COLORADO...

CITY           SKY/WX    TMP DP  RH WIND       PRES   REMARKS
GREELEY ARPT   FAIR      41  40  96 W5        30.18F
AKRON          MOCLDY    44  43  96 W8        30.16S FOG
BURLINGTON     CLOUDY    50  48  93 W7        30.14F
WRAY           FAIR      46  46 100 W12       30.13S
YUMA           FAIR      45  34  65 W9        30.14F
STERLING       FAIR      37  37 100 CALM      30.13F
HOLYOKE        NOT AVBL
FORT MORGAN    FOG       40  39  95 W7        30.17S VSB 1/2
$$

COZ086-089-092>099-221300-
...SOUTHEAST COLORADO...

CITY           SKY/WX    TMP DP  RH WIND       PRES   REMARKS
PUEBLO         LGT RAIN  49  44  83 W9        30.21R
LA JUNTA       LGT RAIN  52  47  83 CALM      30.17R
LAMAR          CLOUDY    52  48  86 NW6       30.13R
SPRINGFIELD      N/A     50  44  80 W6        30.15S
$$




USA.gov is the U.S. government's official web portal to all federal, state and local government web resources and services.